| time (UTC) | temp C | wind direction | speed KPH | gust KPH | rain 1hr cm | rain 24hr cm | rain mn cm | humidity % | barometer mb |
| 20260510091504 | 16 | 292 | 3.2 | 14.5 | 0.00 | 1.30 | 0.03 | 97 | 1017.7 |
| 20260510090002 | 16 | 134 | 3.2 | 14.5 | 0.00 | 1.30 | 0.03 | 98 | 1017.6 |
| 20260510084601 | 15 | 225 | 4.8 | 12.9 | 0.00 | 1.30 | 0.03 | 99 | 1017.6 |
| 20260510083102 | 15 | 235 | 1.6 | 17.7 | 0.00 | 1.30 | 0.03 | 99 | 1017.7 |
| 20260510081553 | 15 | 181 | 3.2 | 17.7 | 0.00 | 1.30 | 0.03 | 100 | 1017.7 |
| 20260510080050 | 14 | 283 | 1.6 | 16.1 | 0.00 | 1.30 | 0.03 | 100 | 1017.5 |
| 20260510074602 | 13 | 267 | 3.2 | 12.9 | 0.00 | 1.30 | 0.03 | 100 | 1017.4 |
| 20260510073049 | 13 | 290 | 6.4 | 16.1 | 0.00 | 1.30 | 0.03 | 100 | 1017.4 |
| 20260510071555 | 12 | 301 | 6.4 | 17.7 | 0.00 | 1.30 | 0.03 | 100 | 1017.3 |
| 20260510070045 | 12 | 270 | 1.6 | 12.9 | 0.00 | 1.30 | 0.03 | 100 | 1017.3 |
| 20260510064603 | 12 | 271 | 1.6 | 8.0 | 0.00 | 1.30 | 0.03 | 100 | 1017.3 |
| 20260510063044 | 12 | 273 | 0.0 | 4.8 | 0.00 | 1.30 | 0.03 | 100 | 1017.3 |
| 20260510061544 | 11 | 257 | 0.0 | 6.4 | 0.00 | 1.30 | 0.03 | 100 | 1017.2 |
| 20260510060052 | 11 | 278 | 1.6 | 4.8 | 0.00 | 1.30 | 0.03 | 100 | 1017.2 |
| 20260510054542 | 10 | 304 | 1.6 | 6.4 | 0.00 | 1.30 | 0.03 | 100 | 1017.2 |
| 20260510053042 | 10 | 288 | 0.0 | 4.8 | 0.00 | 1.30 | 0.03 | 100 | 1017.1 |
| 20260510051552 | 10 | 288 | 0.0 | 4.8 | 0.00 | 1.30 | 0.03 | 100 | 1017.0 |
| 20260510050040 | 10 | 288 | 0.0 | 4.8 | 0.00 | 1.30 | 0.03 | 100 | 1017.0 |
| 20260510044540 | 10 | 288 | 0.0 | 3.2 | 0.00 | 1.30 | 0.03 | 100 | 1016.9 |
| 20260510043044 | 10 | 288 | 0.0 | 1.6 | 0.03 | 1.30 | 0.03 | 100 | 1017.1 |
| 20260510041544 | 10 | 288 | 0.0 | 1.6 | 0.03 | 1.30 | 0.03 | 100 | 1017.1 |
| 20260510040033 | 10 | 288 | 0.0 | 3.2 | 0.03 | 1.30 | 0.03 | 100 | 1017.2 |
| 20260510034533 | 10 | 288 | 0.0 | 0.0 | 0.03 | 1.30 | 0.03 | 100 | 1017.1 |
| 20260510033034 | 10 | 288 | 0.0 | 0.0 | 0.00 | 1.27 | 0.00 | 100 | 1017.1 |
| 20260510031532 | 10 | 288 | 0.0 | 1.6 | 0.00 | 1.27 | 0.00 | 100 | 1017.2 |
| 20260510030030 | 10 | 288 | 0.0 | 3.2 | 0.00 | 1.27 | 0.00 | 100 | 1017.2 |
| 20260510024530 | 10 | 288 | 0.0 | 1.6 | 0.00 | 1.27 | 0.00 | 100 | 1017.4 |
| 20260510023029 | 10 | 288 | 0.0 | 1.6 | 0.00 | 1.27 | 0.00 | 100 | 1017.6 |
| 20260510021532 | 10 | 288 | 0.0 | 0.0 | 0.00 | 1.27 | 0.00 | 100 | 1017.6 |
| 20260510020028 | 10 | 288 | 0.0 | 0.0 | 0.00 | 1.27 | 0.00 | 100 | 1017.4 |
| 20260510014528 | 10 | 288 | 0.0 | 0.0 | 0.00 | 1.27 | 0.00 | 99 | 1017.4 |
| 20260510013026 | 10 | 288 | 0.0 | 0.0 | 0.00 | 1.27 | 0.00 | 100 | 1017.2 |
| 20260510011533 | 10 | 288 | 0.0 | 0.0 | 0.00 | 1.27 | 0.00 | 100 | 1017.2 |
| 20260510010033 | 10 | 288 | 0.0 | 0.0 | 0.00 | 1.27 | 0.00 | 100 | 1017.3 |
| 20260510004518 | 11 | 288 | 0.0 | 0.0 | 0.00 | 1.27 | 0.00 | 100 | 1017.4 |
| 20260510003017 | 11 | 288 | 0.0 | 1.6 | 0.00 | 1.27 | 0.00 | 100 | 1017.6 |
| 20260510001515 | 11 | 288 | 0.0 | 0.0 | 0.00 | 1.27 | 0.00 | 99 | 1017.7 |
| 20260510000012 | 11 | 288 | 0.0 | 0.0 | 0.00 | 1.27 | 0.00 | 100 | 1018.1 |
| 20260509234510 | 11 | 288 | 0.0 | 0.0 | 0.00 | 1.27 | 0.00 | 100 | 1018.3 |
| 20260509233007 | 12 | 288 | 0.0 | 0.0 | 0.00 | 1.27 | 0.00 | 100 | 1018.2 |
| 20260509231504 | 12 | 288 | 0.0 | 1.6 | 0.00 | 1.27 | 0.00 | 99 | 1018.3 |
| 20260509230003 | 12 | 288 | 0.0 | 1.6 | 0.00 | 1.27 | 0.00 | 100 | 1018.3 |
| 20260509224502 | 12 | 288 | 0.0 | 3.2 | 0.00 | 1.27 | 0.00 | 99 | 1018.3 |
| 20260509223101 | 13 | 288 | 0.0 | 1.6 | 0.00 | 1.27 | 0.00 | 99 | 1018.3 |
| 20260509221612 | 13 | 288 | 0.0 | 3.2 | 0.00 | 1.27 | 0.00 | 99 | 1018.3 |
| 20260509220106 | 13 | 288 | 0.0 | 0.0 | 0.00 | 1.27 | 0.00 | 99 | 1018.3 |
| 20260509214557 | 13 | 288 | 0.0 | 3.2 | 0.00 | 1.27 | 1.27 | 99 | 1018.3 |
| 20260509213057 | 12 | 288 | 0.0 | 0.0 | 0.00 | 1.27 | 1.27 | 99 | 1018.3 |
| 20260509211556 | 12 | 288 | 0.0 | 0.0 | 0.00 | 1.27 | 1.27 | 99 | 1018.2 |
| 20260509210100 | 13 | 288 | 0.0 | 3.2 | 0.00 | 1.27 | 1.27 | 100 | 1018.1 |
| 20260509204600 | 12 | 288 | 0.0 | 3.2 | 0.00 | 1.27 | 1.27 | 99 | 1018.0 |
| 20260509203058 | 12 | 134 | 0.0 | 0.0 | 0.00 | 1.27 | 1.27 | 100 | 1017.8 |
| 20260509201554 | 13 | 134 | 0.0 | 0.0 | 0.00 | 1.27 | 1.27 | 99 | 1017.6 |
| 20260509200059 | 13 | 134 | 0.0 | 0.0 | 0.00 | 1.27 | 1.27 | 99 | 1017.2 |
| 20260509194552 | 13 | 134 | 0.0 | 0.0 | 0.00 | 1.27 | 1.27 | 99 | 1017.1 |
| 20260509193101 | 13 | 134 | 0.0 | 0.0 | 0.00 | 1.27 | 1.27 | 99 | 1016.9 |
| 20260509191610 | 13 | 134 | 0.0 | 0.0 | 0.00 | 1.27 | 1.27 | 99 | 1016.7 |
| 20260509190105 | 13 | 134 | 0.0 | 0.0 | 0.03 | 1.27 | 1.27 | 99 | 1016.4 |
| 20260509184550 | 13 | 134 | 0.0 | 0.0 | 0.03 | 1.27 | 1.27 | 99 | 1016.0 |
| 20260509183050 | 13 | 134 | 0.0 | 1.6 | 0.03 | 1.27 | 1.27 | 99 | 1015.7 |
| 20260509181549 | 13 | 212 | 1.6 | 4.8 | 0.03 | 1.27 | 1.27 | 99 | 1015.5 |
| 20260509180050 | 13 | 338 | 0.0 | 1.6 | 0.05 | 1.27 | 1.27 | 99 | 1015.3 |
| 20260509174548 | 13 | 337 | 0.0 | 0.0 | 0.18 | 1.27 | 1.27 | 99 | 1014.9 |
| 20260509173056 | 13 | 340 | 0.0 | 3.2 | 0.36 | 1.27 | 1.27 | 99 | 1014.9 |
| 20260509171559 | 13 | 305 | 0.0 | 6.4 | 0.51 | 1.27 | 1.27 | 99 | 1014.9 |
| 20260509170046 | 13 | 322 | 1.6 | 4.8 | 0.51 | 1.19 | 1.19 | 99 | 1015.5 |
| 20260509164550 | 13 | 134 | 0.0 | 1.6 | 0.48 | 1.09 | 1.09 | 99 | 1016.3 |
| 20260509163051 | 13 | 134 | 0.0 | 3.2 | 0.43 | 0.89 | 0.89 | 99 | 1017.0 |
| 20260509161544 | 13 | 134 | 0.0 | 0.0 | 0.36 | 0.71 | 0.71 | 99 | 1017.5 |
| 20260509160044 | 13 | 134 | 0.0 | 0.0 | 0.33 | 0.69 | 0.69 | 99 | 1017.8 |
| 20260509154544 | 13 | 245 | 0.0 | 6.4 | 0.33 | 0.61 | 0.61 | 99 | 1017.9 |
| 20260509153044 | 13 | 121 | 0.0 | 11.3 | 0.28 | 0.43 | 0.43 | 99 | 1017.8 |
| 20260509151541 | 13 | 297 | 0.0 | 1.6 | 0.30 | 0.38 | 0.38 | 99 | 1016.7 |
| 20260509150040 | 13 | 327 | 1.6 | 6.4 | 0.28 | 0.33 | 0.33 | 99 | 1014.9 |
| 20260509144546 | 13 | 105 | 0.0 | 8.0 | 0.28 | 0.28 | 0.28 | 98 | 1015.1 |
| 20260509143038 | 13 | 219 | 0.0 | 4.8 | 0.15 | 0.15 | 0.15 | 98 | 1015.7 |
| 20260509141539 | 14 | 121 | 0.0 | 9.7 | 0.08 | 0.08 | 0.08 | 97 | 1016.7 |
| 20260509140036 | 15 | 155 | 1.6 | 8.0 | 0.05 | 0.05 | 0.05 | 91 | 1017.2 |
| 20260509134548 | 17 | 141 | 1.6 | 9.7 | 0.00 | 0.00 | 0.00 | 77 | 1017.4 |
| 20260509133035 | 17 | 110 | 0.0 | 9.7 | 0.00 | 0.00 | 0.00 | 72 | 1017.4 |
| 20260509131551 | 17 | 112 | 0.0 | 4.8 | 0.00 | 0.00 | 0.00 | 72 | 1017.1 |
| 20260509130043 | 18 | 191 | 0.0 | 6.4 | 0.00 | 0.00 | 0.00 | 70 | 1016.6 |
| 20260509124539 | 18 | 115 | 0.0 | 4.8 | 0.00 | 0.00 | 0.00 | 70 | 1016.3 |
| 20260509123031 | 17 | 222 | 1.6 | 11.3 | 0.00 | 0.00 | 0.00 | 72 | 1016.4 |
| 20260509121529 | 17 | 115 | 0.0 | 11.3 | 0.00 | 0.00 | 0.00 | 75 | 1017.2 |
| 20260509120023 | 17 | 155 | 1.6 | 12.9 | 0.00 | 0.00 | 0.00 | 78 | 1017.6 |
| 20260509114523 | 18 | 110 | 1.6 | 11.3 | 0.00 | 0.00 | 0.00 | 73 | 1018.3 |
| 20260509113022 | 18 | 136 | 4.8 | 17.7 | 0.00 | 0.00 | 0.00 | 68 | 1018.2 |
| 20260509111520 | 18 | 103 | 8.0 | 16.1 | 0.00 | 0.00 | 0.00 | 72 | 1018.4 |
| 20260509110024 | 17 | 77 | 4.8 | 14.5 | 0.00 | 0.00 | 0.00 | 79 | 1018.2 |
| 20260509104518 | 17 | 60 | 3.2 | 12.9 | 0.00 | 0.00 | 0.00 | 82 | 1018.2 |
| 20260509103020 | 18 | 138 | 3.2 | 9.7 | 0.00 | 0.00 | 0.00 | 77 | 1018.4 |
| 20260509101521 | 18 | 204 | 0.0 | 9.7 | 0.00 | 0.00 | 0.00 | 77 | 1018.3 |
| 20260509100019 | 18 | 134 | 0.0 | 8.0 | 0.00 | 0.00 | 0.00 | 76 | 1018.3 |
| 20260509094517 | 18 | 139 | 1.6 | 8.0 | 0.00 | 0.00 | 0.00 | 76 | 1018.2 |
| 20260509093021 | 18 | 149 | 0.0 | 8.0 | 0.00 | 0.00 | 0.00 | 76 | 1018.0 |
| 20260509091513 | 18 | 340 | 1.6 | 4.8 | 0.00 | 0.00 | 0.00 | 78 | 1018.0 |